Location: Croissy-Beaubourg
(48.8283°N, 2.6696°E)
Time: 15:42:53
(UTC+00:00)

Cosmos 1602 Rocket - Pass Details

Date: 16 October 2021
Orbit: 603 x 634 km, 82.5° (Epoch: 28 November)

Event Time Altitude Azimuth Distance (km) Brightness Sun altitude
Rises 18:42:43 0° 356° (N) 2,906 7.1 -18.0°
Reaches altitude 10° 18:45:06 10° 4° (N) 1,989 6.2 -18.4°
Enters shadow 18:48:53 38° 62° (ENE) 951 4.1 -19.1°
